BAW936D EGLL-EDDM

Flight info

Callsign BAW936D
Flight time N/A
Altitude 37000
Route DET L6 DVR UL9 KONAN UL607 SPI DCT MOVUM T109 HAREM T104 ROKIL ROKIL1A
Aircraft A320/M-SDE3FGHIRWY/LB1

Departure

Time N/A
Airport London Heathrow Airport (EGLL)

Arrival

Time 2026-05-04 17:23
Airport Munich Airport (EDDM)
Time Latitude Longitude Altitude Speed Heading
2026-05-04 16:15 50.90122 3.69647 35974 ft 443 kts 110°
2026-05-04 16:16 50.88384 3.78689 35971 ft 443 kts 111°
2026-05-04 16:17 50.83843 4.02000 35969 ft 443 kts 111°
2026-05-04 16:18 50.80186 4.20633 35964 ft 443 kts 111°
2026-05-04 16:19 50.75904 4.42348 35973 ft 444 kts 111°
2026-05-04 16:20 50.71482 4.65736 35968 ft 444 kts 110°
2026-05-04 16:22 50.66993 4.89042 35974 ft 444 kts 111°
2026-05-04 16:23 50.61546 5.16900 35980 ft 445 kts 111°
2026-05-04 16:25 50.56217 5.43813 35992 ft 447 kts 112°
2026-05-04 16:26 50.49684 5.76328 35989 ft 448 kts 112°
2026-05-04 16:28 50.45008 5.99254 35984 ft 448 kts 112°
2026-05-04 16:29 50.38375 6.31251 35981 ft 449 kts 112°
2026-05-04 16:31 50.33575 6.54211 35982 ft 450 kts 113°
2026-05-04 16:32 50.27748 6.81632 35994 ft 450 kts 113°
2026-05-04 16:33 50.23802 7.00058 36001 ft 453 kts 113°
2026-05-04 16:34 50.20777 7.14035 36000 ft 453 kts 113°
2026-05-04 16:35 50.14690 7.41872 35995 ft 452 kts 113°
2026-05-04 16:36 50.11613 7.55781 35997 ft 452 kts 114°
2026-05-04 16:37 50.08537 7.69607 35991 ft 452 kts 114°
2026-05-04 16:38 50.04397 7.88109 35985 ft 453 kts 114°
2026-05-04 16:39 49.99169 8.11210 35975 ft 453 kts 114°
2026-05-04 16:40 49.94946 8.29683 35972 ft 455 kts 114°
2026-05-04 16:41 49.89622 8.52779 35986 ft 455 kts 114°
2026-05-04 16:43 49.84254 8.75797 35993 ft 454 kts 114°
2026-05-04 16:43 49.81005 8.89584 35994 ft 453 kts 115°
2026-05-04 16:45 49.71906 9.14775 35997 ft 449 kts 124°
2026-05-04 16:46 49.64048 9.35588 35995 ft 449 kts 124°
2026-05-04 16:47 49.60547 9.43458 35996 ft 441 kts 137°
2026-05-04 16:47 49.56398 9.50432 35990 ft 442 kts 137°
2026-05-04 16:48 49.48027 9.64343 35680 ft 445 kts 137°
2026-05-04 16:49 49.43797 9.71320 35166 ft 447 kts 137°
2026-05-04 16:49 49.39549 9.78326 34675 ft 448 kts 137°
2026-05-04 16:50 49.35317 9.85289 33773 ft 452 kts 137°
2026-05-04 16:50 49.30971 9.92411 32047 ft 459 kts 136°
2026-05-04 16:51 49.26660 9.99463 30992 ft 450 kts 137°
2026-05-04 16:51 49.24663 10.02726 30465 ft 446 kts 137°
2026-05-04 16:51 49.20436 10.09632 29295 ft 439 kts 137°
2026-05-04 16:52 49.16298 10.16363 28197 ft 429 kts 137°
2026-05-04 16:52 49.14262 10.19665 27658 ft 425 kts 137°
2026-05-04 16:53 49.10244 10.26164 26608 ft 416 kts 137°
2026-05-04 16:53 49.04353 10.35661 25119 ft 406 kts 137°
2026-05-04 16:54 49.02424 10.38775 24650 ft 402 kts 137°
2026-05-04 16:55 48.94822 10.50982 22768 ft 390 kts 137°
2026-05-04 16:55 48.91116 10.56905 21849 ft 382 kts 137°
2026-05-04 16:56 48.87519 10.62643 20953 ft 375 kts 137°
2026-05-04 16:56 48.82095 10.71047 19525 ft 369 kts 143°
2026-05-04 16:57 48.80112 10.73513 19029 ft 368 kts 144°
2026-05-04 16:57 48.76162 10.78354 18059 ft 363 kts 144°
2026-05-04 16:58 48.70344 10.85440 16550 ft 355 kts 144°
2026-05-04 16:58 48.68422 10.87756 16071 ft 352 kts 144°
2026-05-04 16:59 48.64619 10.92307 15110 ft 345 kts 144°
2026-05-04 17:00 48.57148 11.01195 13011 ft 338 kts 144°
2026-05-04 17:00 48.51656 11.07723 11402 ft 333 kts 144°
2026-05-04 17:01 48.48050 11.12057 10366 ft 330 kts 144°
2026-05-04 17:01 48.45114 11.15629 9912 ft 316 kts 144°
2026-05-04 17:02 48.42099 11.19990 9906 ft 294 kts 122°
2026-05-04 17:02 48.40541 11.25709 9025 ft 291 kts 114°
2026-05-04 17:03 48.39822 11.28533 8505 ft 287 kts 114°
2026-05-04 17:03 48.39100 11.31307 8004 ft 284 kts 114°
2026-05-04 17:03 48.37629 11.36758 7017 ft 278 kts 114°
2026-05-04 17:04 48.36164 11.42098 6031 ft 270 kts 113°
2026-05-04 17:04 48.34788 11.47217 5102 ft 257 kts 112°
2026-05-04 17:05 48.34320 11.51955 4667 ft 216 kts 83°
2026-05-04 17:05 48.34661 11.56177 4160 ft 189 kts 83°
2026-05-04 17:06 48.34942 11.59729 3701 ft 152 kts 83°
2026-05-04 17:06 48.35064 11.61267 3514 ft 145 kts 83°
2026-05-04 17:07 48.35298 11.64245 3140 ft 142 kts 83°
2026-05-04 17:07 48.35375 11.65220 3025 ft 142 kts 83°
2026-05-04 17:07 48.35530 11.67190 2773 ft 141 kts 82°
2026-05-04 17:07 48.35636 11.68544 2605 ft 142 kts 82°
2026-05-04 17:08 48.35750 11.70006 2412 ft 143 kts 82°
2026-05-04 17:08 48.35990 11.72998 2011 ft 145 kts 82°
2026-05-04 17:08 48.36104 11.74507 1837 ft 143 kts 81°
2026-05-04 17:09 48.36215 11.75977 1637 ft 142 kts 82°
2026-05-04 17:09 48.36326 11.77422 1500 ft 134 kts 81°
2026-05-04 17:09 48.36437 11.78741 1585 ft 131 kts 81°
2026-05-04 17:10 48.36661 11.81481 2901 ft 144 kts 83°
2026-05-04 17:10 48.37607 11.86202 3959 ft 167 kts 32°
2026-05-04 17:11 48.38720 11.86457 4362 ft 165 kts 346°
2026-05-04 17:11 48.39620 11.85456 4796 ft 164 kts 305°
2026-05-04 17:11 48.40739 11.82147 4987 ft 204 kts 295°
2026-05-04 17:12 48.41363 11.80095 4986 ft 223 kts 294°
2026-05-04 17:12 48.42666 11.75799 5006 ft 226 kts 294°
2026-05-04 17:13 48.44632 11.69322 5008 ft 227 kts 295°
2026-05-04 17:14 48.44864 11.62340 5007 ft 226 kts 262°
2026-05-04 17:14 48.44659 11.60019 5005 ft 227 kts 261°
2026-05-04 17:14 48.44234 11.55319 5007 ft 226 kts 262°
2026-05-04 17:15 48.44019 11.52977 5007 ft 226 kts 261°
2026-05-04 17:15 48.43593 11.48257 4671 ft 227 kts 262°
2026-05-04 17:16 48.43150 11.43584 4166 ft 224 kts 261°
2026-05-04 17:16 48.41312 11.37597 4005 ft 220 kts 199°
2026-05-04 17:17 48.39805 11.37246 4011 ft 219 kts 178°
2026-05-04 17:17 48.35364 11.38341 4018 ft 217 kts 143°
2026-05-04 17:18 48.34311 11.39941 4006 ft 215 kts 121°
2026-05-04 17:18 48.33700 11.44225 4012 ft 214 kts 83°
2026-05-04 17:19 48.34060 11.48643 4014 ft 215 kts 83°
2026-05-04 17:19 48.34416 11.53093 4008 ft 215 kts 83°
2026-05-04 17:20 48.34771 11.57561 3917 ft 215 kts 83°
2026-05-04 17:20 48.35122 11.61998 3417 ft 210 kts 83°
2026-05-04 17:20 48.35289 11.64126 3171 ft 197 kts 83°
2026-05-04 17:21 48.35580 11.67840 2703 ft 158 kts 82°
2026-05-04 17:21 48.35831 11.70926 2249 ft 145 kts 82°
2026-05-04 17:22 48.35945 11.72421 2079 ft 144 kts 82°
2026-05-04 17:22 48.36052 11.73896 1878 ft 143 kts 82°
2026-05-04 17:23 48.36386 11.78240 1488 ft 122 kts 82°
2026-05-04 17:23 48.36470 11.79256 1482 ft 66 kts 84°
2026-05-04 17:23 48.36491 11.80044 1476 ft 34 kts 106°
2026-05-04 17:24 48.36406 11.80347 1479 ft 23 kts 113°
2026-05-04 17:24 48.36283 11.80365 1485 ft 18 kts 264°
2026-05-04 17:25 48.36265 11.80131 1485 ft 24 kts 263°
2026-05-04 17:25 48.36225 11.79592 1479 ft 28 kts 263°
2026-05-04 17:26 48.36176 11.78964 1473 ft 32 kts 263°
2026-05-04 17:26 48.36095 11.77903 1485 ft 28 kts 263°
2026-05-04 17:27 48.36070 11.77676 1480 ft 10 kts 234°
2026-05-04 17:27 48.35902 11.77686 1476 ft 15 kts 172°
2026-05-04 17:28 48.35856 11.77694 1478 ft 0 kts 173°
2026-05-04 17:31 48.35705 11.77721 1481 ft 19 kts 173°
2026-05-04 17:31 48.35316 11.78160 1483 ft 8 kts 160°
2026-05-04 17:32 48.35313 11.78266 1485 ft 4 kts 52°
2026-05-04 17:33 48.35328 11.78330 1485 ft 0 kts 83°